owner,sensor,date,latitude,longitude,air_pressure(mBar),qcFlag 
TABS,ioos:station:wmo:42045:1,2009-11-01T00:00:00Z,26.2168,-96.4998,1019.73,11111222 
TABS,ioos:station:wmo:42045:1,2009-11-01T00:30:00Z,26.2168,-96.4998,1020.13,11111222 
TABS,ioos:station:wmo:42045:1,2009-11-01T01:00:00Z,26.2168,-96.4998,1020.29,11111222 
TABS,ioos:station:wmo:42045:1,2009-11-01T01:30:00Z,26.2168,-96.4998,1020.68,11111222 
TABS,ioos:station:wmo:42045:1,2009-11-01T02:00:00Z,26.2168,-96.4998,1021.01,11111222 
TABS,ioos:station:wmo:42045:1,2009-11-01T02:30:00Z,26.2168,-96.4998,1021.0,11111222 
TABS,ioos:station:wmo:42045:1,2009-11-01T03:00:00Z,26.2168,-96.4998,1021.18,11111222 
TABS,ioos:station:wmo:42045:1,2009-11-01T03:30:00Z,26.2168,-96.4998,1021.22,11111222 
TABS,ioos:station:wmo:42045:1,2009-11-01T04:00:00Z,26.2168,-96.4998,1021.48,11111222 
TABS,ioos:station:wmo:42045:1,2009-11-01T04:30:00Z,26.2168,-96.4998,1021.32,11111222 
TABS,ioos:station:wmo:42045:1,2009-11-01T05:00:00Z,26.2168,-96.4998,1021.15,11111222 
TABS,ioos:station:wmo:42045:1,2009-11-01T05:30:00Z,26.2168,-96.4998,1020.88,11111222 
TABS,ioos:station:wmo:42045:1,2009-11-01T06:00:00Z,26.2168,-96.4998,1020.8,11111222 
TABS,ioos:station:wmo:42045:1,2009-11-01T06:30:00Z,26.2168,-96.4998,1020.62,11111222 
TABS,ioos:station:wmo:42045:1,2009-11-01T07:00:00Z,26.2168,-96.4998,1020.57,11111222 
TABS,ioos:station:wmo:42045:1,2009-11-01T07:30:00Z,26.2168,-96.4998,1020.35,11111222 
TABS,ioos:station:wmo:42045:1,2009-11-01T08:00:00Z,26.2168,-96.4998,1020.15,11111222 
TABS,ioos:station:wmo:42045:1,2009-11-01T08:30:00Z,26.2168,-96.4998,1020.0,11111222 
TABS,ioos:station:wmo:42045:1,2009-11-01T09:00:00Z,26.2168,-96.4998,1019.81,11111222 
TABS,ioos:station:wmo:42045:1,2009-11-01T09:30:00Z,26.2168,-96.4998,1019.86,11111222 
TABS,ioos:station:wmo:42045:1,2009-11-01T10:00:00Z,26.2168,-96.4998,1019.64,11111222 
TABS,ioos:station:wmo:42045:1,2009-11-01T10:30:00Z,26.2168,-96.4998,1019.67,11111222 
TABS,ioos:station:wmo:42045:1,2009-11-01T11:00:00Z,26.2168,-96.4998,1019.66,11111222 
TABS,ioos:station:wmo:42045:1,2009-11-01T11:30:00Z,26.2168,-96.4998,1019.76,11111222 
TABS,ioos:station:wmo:42045:1,2009-11-01T12:00:00Z,26.2168,-96.4998,1019.93,11111222 
TABS,ioos:station:wmo:42045:1,2009-11-01T12:30:00Z,26.2168,-96.4998,1020.37,11111222 
TABS,ioos:station:wmo:42045:1,2009-11-01T13:00:00Z,26.2168,-96.4998,1020.46,11111222 
TABS,ioos:station:wmo:42045:1,2009-11-01T13:30:00Z,26.2168,-96.4998,1020.65,11111222 
TABS,ioos:station:wmo:42045:1,2009-11-01T14:00:00Z,26.2168,-96.4998,1021.13,11111222 
TABS,ioos:station:wmo:42045:1,2009-11-01T14:30:00Z,26.2168,-96.4998,1021.18,11111222 
TABS,ioos:station:wmo:42045:1,2009-11-01T15:00:00Z,26.2168,-96.4998,1021.37,11111222 
TABS,ioos:station:wmo:42045:1,2009-11-01T15:30:00Z,26.2168,-96.4998,1021.49,11111222 
TABS,ioos:station:wmo:42045:1,2009-11-01T16:00:00Z,26.2168,-96.4998,1021.64,11111222 
TABS,ioos:station:wmo:42045:1,2009-11-01T16:30:00Z,26.2168,-96.4998,1021.56,11111222 
TABS,ioos:station:wmo:42045:1,2009-11-01T17:00:00Z,26.2168,-96.4998,1021.28,11111222 
TABS,ioos:station:wmo:42045:1,2009-11-01T17:30:00Z,26.2168,-96.4998,1021.02,11111222 
TABS,ioos:station:wmo:42045:1,2009-11-01T18:00:00Z,26.2168,-96.4998,1020.57,11111222 
TABS,ioos:station:wmo:42045:1,2009-11-01T18:30:00Z,26.2168,-96.4998,1020.18,11111222 
TABS,ioos:station:wmo:42045:1,2009-11-01T19:00:00Z,26.2168,-96.4998,1019.53,11111222 
TABS,ioos:station:wmo:42045:1,2009-11-01T19:30:00Z,26.2168,-96.4998,1019.19,11111222 
TABS,ioos:station:wmo:42045:1,2009-11-01T20:00:00Z,26.2168,-96.4998,1018.93,11111222 
TABS,ioos:station:wmo:42045:1,2009-11-01T20:30:00Z,26.2168,-96.4998,1018.76,11111222 
TABS,ioos:station:wmo:42045:1,2009-11-01T21:00:00Z,26.2168,-96.4998,1018.93,11111222 
TABS,ioos:station:wmo:42045:1,2009-11-01T21:30:00Z,26.2168,-96.4998,1018.86,11111222 
TABS,ioos:station:wmo:42045:1,2009-11-01T22:00:00Z,26.2168,-96.4998,1018.72,11111222 
TABS,ioos:station:wmo:42045:1,2009-11-01T22:30:00Z,26.2168,-96.4998,1018.86,11111222 
TABS,ioos:station:wmo:42045:1,2009-11-01T23:00:00Z,26.2168,-96.4998,1018.88,11111222 
TABS,ioos:station:wmo:42045:1,2009-11-01T23:30:00Z,26.2168,-96.4998,1018.99,11111222 
TABS,ioos:station:wmo:42045:1,2009-11-02T00:00:00Z,26.2168,-96.4998,1019.11,11111222 
TABS,ioos:station:wmo:42045:1,2009-11-02T00:30:00Z,26.2168,-96.4998,1019.22,11111222 
TABS,ioos:station:wmo:42045:1,2009-11-02T01:00:00Z,26.2168,-96.4998,1019.45,11111222 
TABS,ioos:station:wmo:42045:1,2009-11-02T01:30:00Z,26.2168,-96.4998,1019.75,11111222 
TABS,ioos:station:wmo:42045:1,2009-11-02T02:00:00Z,26.2168,-96.4998,1019.97,11111222 
TABS,ioos:station:wmo:42045:1,2009-11-02T02:30:00Z,26.2168,-96.4998,1019.94,11111222 
TABS,ioos:station:wmo:42045:1,2009-11-02T03:00:00Z,26.2168,-96.4998,1019.89,11111222 
TABS,ioos:station:wmo:42045:1,2009-11-02T03:30:00Z,26.2168,-96.4998,1019.87,11111222 
TABS,ioos:station:wmo:42045:1,2009-11-02T04:00:00Z,26.2168,-96.4998,1019.89,11111222 
TABS,ioos:station:wmo:42045:1,2009-11-02T04:30:00Z,26.2168,-96.4998,1019.84,11111222 
TABS,ioos:station:wmo:42045:1,2009-11-02T05:00:00Z,26.2168,-96.4998,1019.66,11111222 
TABS,ioos:station:wmo:42045:1,2009-11-02T05:30:00Z,26.2168,-96.4998,1019.33,11111222 
TABS,ioos:station:wmo:42045:1,2009-11-02T06:00:00Z,26.2168,-96.4998,1019.22,11111222 
TABS,ioos:station:wmo:42045:1,2009-11-02T06:30:00Z,26.2168,-96.4998,1019.16,11111222 
TABS,ioos:station:wmo:42045:1,2009-11-02T07:00:00Z,26.2168,-96.4998,1019.15,11111222 
TABS,ioos:station:wmo:42045:1,2009-11-02T07:30:00Z,26.2168,-96.4998,1018.96,11111222 
TABS,ioos:station:wmo:42045:1,2009-11-02T08:00:00Z,26.2168,-96.4998,1019.01,11111222 
TABS,ioos:station:wmo:42045:1,2009-11-02T08:30:00Z,26.2168,-96.4998,1018.71,11111222 
TABS,ioos:station:wmo:42045:1,2009-11-02T09:00:00Z,26.2168,-96.4998,1018.62,11111222 
TABS,ioos:station:wmo:42045:1,2009-11-02T09:30:00Z,26.2168,-96.4998,1018.51,11111222 
TABS,ioos:station:wmo:42045:1,2009-11-02T10:00:00Z,26.2168,-96.4998,1018.47,11111222 
TABS,ioos:station:wmo:42045:1,2009-11-02T10:30:00Z,26.2168,-96.4998,1018.57,11111222 
TABS,ioos:station:wmo:42045:1,2009-11-02T11:00:00Z,26.2168,-96.4998,1018.86,11111222 
TABS,ioos:station:wmo:42045:1,2009-11-02T11:30:00Z,26.2168,-96.4998,1018.96,11111222 
TABS,ioos:station:wmo:42045:1,2009-11-02T12:00:00Z,26.2168,-96.4998,1019.13,11111222 
TABS,ioos:station:wmo:42045:1,2009-11-02T12:30:00Z,26.2168,-96.4998,1019.5,11111222 
TABS,ioos:station:wmo:42045:1,2009-11-02T13:00:00Z,26.2168,-96.4998,1019.82,11111222 
TABS,ioos:station:wmo:42045:1,2009-11-02T13:30:00Z,26.2168,-96.4998,1020.14,11111222 
TABS,ioos:station:wmo:42045:1,2009-11-02T14:00:00Z,26.2168,-96.4998,1020.47,11111222 
TABS,ioos:station:wmo:42045:1,2009-11-02T14:30:00Z,26.2168,-96.4998,1020.87,11111222 
TABS,ioos:station:wmo:42045:1,2009-11-02T15:00:00Z,26.2168,-96.4998,1021.07,11111222 
TABS,ioos:station:wmo:42045:1,2009-11-02T15:30:00Z,26.2168,-96.4998,1021.36,11111222 
TABS,ioos:station:wmo:42045:1,2009-11-02T16:00:00Z,26.2168,-96.4998,1021.56,11111222 
TABS,ioos:station:wmo:42045:1,2009-11-02T16:30:00Z,26.2168,-96.4998,1021.62,11111222 
TABS,ioos:station:wmo:42045:1,2009-11-02T17:00:00Z,26.2168,-96.4998,1021.42,11111222 
TABS,ioos:station:wmo:42045:1,2009-11-02T17:30:00Z,26.2168,-96.4998,1021.24,11111222 
TABS,ioos:station:wmo:42045:1,2009-11-02T18:00:00Z,26.2168,-96.4998,1020.85,11111222 
TABS,ioos:station:wmo:42045:1,2009-11-02T18:30:00Z,26.2168,-96.4998,1020.43,11111222 
TABS,ioos:station:wmo:42045:1,2009-11-02T19:00:00Z,26.2168,-96.4998,1020.02,11111222 
TABS,ioos:station:wmo:42045:1,2009-11-02T19:30:00Z,26.2168,-96.4998,1019.81,11111222 
TABS,ioos:station:wmo:42045:1,2009-11-02T20:00:00Z,26.2168,-96.4998,1019.66,11111222 
TABS,ioos:station:wmo:42045:1,2009-11-02T20:30:00Z,26.2168,-96.4998,1019.54,11111222 
TABS,ioos:station:wmo:42045:1,2009-11-02T21:00:00Z,26.2168,-96.4998,1019.57,11111222 
TABS,ioos:station:wmo:42045:1,2009-11-02T21:30:00Z,26.2168,-96.4998,1019.59,11111222 
TABS,ioos:station:wmo:42045:1,2009-11-02T22:00:00Z,26.2168,-96.4998,1019.51,11111222 
TABS,ioos:station:wmo:42045:1,2009-11-02T22:30:00Z,26.2168,-96.4998,1019.73,11111222 
TABS,ioos:station:wmo:42045:1,2009-11-02T23:00:00Z,26.2168,-96.4998,1019.84,11111222 
TABS,ioos:station:wmo:42045:1,2009-11-02T23:30:00Z,26.2168,-96.4998,1019.93,11111222 
TABS,ioos:station:wmo:42045:1,2009-11-03T00:00:00Z,26.2168,-96.4998,1020.08,11111222 
TABS,ioos:station:wmo:42045:1,2009-11-03T00:30:00Z,26.2168,-96.4998,1020.23,11111222 
TABS,ioos:station:wmo:42045:1,2009-11-03T01:00:00Z,26.2168,-96.4998,1020.39,11111222 
TABS,ioos:station:wmo:42045:1,2009-11-03T01:30:00Z,26.2168,-96.4998,1020.51,11111222 
TABS,ioos:station:wmo:42045:1,2009-11-03T02:00:00Z,26.2168,-96.4998,1020.7,11111222 
TABS,ioos:station:wmo:42045:1,2009-11-03T02:30:00Z,26.2168,-96.4998,1020.95,11111222 
TABS,ioos:station:wmo:42045:1,2009-11-03T03:00:00Z,26.2168,-96.4998,1020.85,11111222 
TABS,ioos:station:wmo:42045:1,2009-11-03T03:30:00Z,26.2168,-96.4998,1021.0,11111222 
TABS,ioos:station:wmo:42045:1,2009-11-03T04:00:00Z,26.2168,-96.4998,1021.29,11111222 
TABS,ioos:station:wmo:42045:1,2009-11-03T04:30:00Z,26.2168,-96.4998,1021.5,11111222 
TABS,ioos:station:wmo:42045:1,2009-11-03T05:00:00Z,26.2168,-96.4998,1021.45,11111222 
TABS,ioos:station:wmo:42045:1,2009-11-03T05:30:00Z,26.2168,-96.4998,1021.36,11111222 
TABS,ioos:station:wmo:42045:1,2009-11-03T06:00:00Z,26.2168,-96.4998,1021.32,11111222 
TABS,ioos:station:wmo:42045:1,2009-11-03T06:30:00Z,26.2168,-96.4998,1021.22,11111222 
TABS,ioos:station:wmo:42045:1,2009-11-03T07:00:00Z,26.2168,-96.4998,1021.07,11111222 
TABS,ioos:station:wmo:42045:1,2009-11-03T07:30:00Z,26.2168,-96.4998,1020.89,11111222 
TABS,ioos:station:wmo:42045:1,2009-11-03T08:00:00Z,26.2168,-96.4998,1020.88,11111222 
TABS,ioos:station:wmo:42045:1,2009-11-03T08:30:00Z,26.2168,-96.4998,1020.83,11111222 
TABS,ioos:station:wmo:42045:1,2009-11-03T09:00:00Z,26.2168,-96.4998,1020.82,11111222 
TABS,ioos:station:wmo:42045:1,2009-11-03T09:30:00Z,26.2168,-96.4998,1021.1,11111222 
TABS,ioos:station:wmo:42045:1,2009-11-03T10:00:00Z,26.2168,-96.4998,1021.01,11111222 
TABS,ioos:station:wmo:42045:1,2009-11-03T10:30:00Z,26.2168,-96.4998,1020.99,11111222 
TABS,ioos:station:wmo:42045:1,2009-11-03T11:00:00Z,26.2168,-96.4998,1021.32,11111222 
TABS,ioos:station:wmo:42045:1,2009-11-03T11:30:00Z,26.2168,-96.4998,1021.42,11111222 
TABS,ioos:station:wmo:42045:1,2009-11-03T12:00:00Z,26.2168,-96.4998,1021.55,11111222 
TABS,ioos:station:wmo:42045:1,2009-11-03T12:30:00Z,26.2168,-96.4998,1021.9,11111222 
TABS,ioos:station:wmo:42045:1,2009-11-03T13:00:00Z,26.2168,-96.4998,1022.24,11111222 
TABS,ioos:station:wmo:42045:1,2009-11-03T13:30:00Z,26.2168,-96.4998,1022.7,11111222 
TABS,ioos:station:wmo:42045:1,2009-11-03T14:00:00Z,26.2168,-96.4998,1022.97,11111222 
TABS,ioos:station:wmo:42045:1,2009-11-03T14:30:00Z,26.2168,-96.4998,1023.42,11111222 
TABS,ioos:station:wmo:42045:1,2009-11-03T15:00:00Z,26.2168,-96.4998,1023.57,11111222 
TABS,ioos:station:wmo:42045:1,2009-11-03T15:30:00Z,26.2168,-96.4998,1023.72,11111222 
TABS,ioos:station:wmo:42045:1,2009-11-03T16:00:00Z,26.2168,-96.4998,1023.76,11111222 
TABS,ioos:station:wmo:42045:1,2009-11-03T16:30:00Z,26.2168,-96.4998,1023.6,11111222 
TABS,ioos:station:wmo:42045:1,2009-11-03T17:00:00Z,26.2168,-96.4998,1023.29,11111222 
TABS,ioos:station:wmo:42045:1,2009-11-03T17:30:00Z,26.2168,-96.4998,1023.16,11111222 
TABS,ioos:station:wmo:42045:1,2009-11-03T18:00:00Z,26.2168,-96.4998,1022.68,11111222 
TABS,ioos:station:wmo:42045:1,2009-11-03T18:30:00Z,26.2168,-96.4998,1022.29,11111222 
TABS,ioos:station:wmo:42045:1,2009-11-03T19:00:00Z,26.2168,-96.4998,1022.22,11111222 
TABS,ioos:station:wmo:42045:1,2009-11-03T19:30:00Z,26.2168,-96.4998,1021.74,11111222 
TABS,ioos:station:wmo:42045:1,2009-11-03T20:00:00Z,26.2168,-96.4998,1021.34,11111222 
TABS,ioos:station:wmo:42045:1,2009-11-03T20:30:00Z,26.2168,-96.4998,1021.19,11111222 
TABS,ioos:station:wmo:42045:1,2009-11-03T21:00:00Z,26.2168,-96.4998,1021.12,11111222 
TABS,ioos:station:wmo:42045:1,2009-11-03T21:30:00Z,26.2168,-96.4998,1021.0,11111222 
TABS,ioos:station:wmo:42045:1,2009-11-03T22:00:00Z,26.2168,-96.4998,1021.1,11111222 
TABS,ioos:station:wmo:42045:1,2009-11-03T22:30:00Z,26.2168,-96.4998,1021.13,11111222 
TABS,ioos:station:wmo:42045:1,2009-11-03T23:00:00Z,26.2168,-96.4998,1021.35,11111222 
TABS,ioos:station:wmo:42045:1,2009-11-03T23:30:00Z,26.2168,-96.4998,1021.58,11111222 
TABS,ioos:station:wmo:42045:1,2009-11-04T00:00:00Z,26.2168,-96.4998,1021.62,11111222 
TABS,ioos:station:wmo:42045:1,2009-11-04T00:30:00Z,26.2168,-96.4998,1021.86,11111222 
TABS,ioos:station:wmo:42045:1,2009-11-04T01:00:00Z,26.2168,-96.4998,1022.2,11111222 
TABS,ioos:station:wmo:42045:1,2009-11-04T01:30:00Z,26.2168,-96.4998,1022.45,11111222 
TABS,ioos:station:wmo:42045:1,2009-11-04T02:00:00Z,26.2168,-96.4998,1022.69,11111222 
TABS,ioos:station:wmo:42045:1,2009-11-04T02:30:00Z,26.2168,-96.4998,1022.95,11111222 
TABS,ioos:station:wmo:42045:1,2009-11-04T03:00:00Z,26.2168,-96.4998,1022.77,11111222 
TABS,ioos:station:wmo:42045:1,2009-11-04T03:30:00Z,26.2168,-96.4998,1022.79,11111222 
TABS,ioos:station:wmo:42045:1,2009-11-04T04:00:00Z,26.2168,-96.4998,1023.01,11111222 
TABS,ioos:station:wmo:42045:1,2009-11-04T04:30:00Z,26.2168,-96.4998,1023.01,11111222 
TABS,ioos:station:wmo:42045:1,2009-11-04T05:00:00Z,26.2168,-96.4998,1023.03,11111222 
TABS,ioos:station:wmo:42045:1,2009-11-04T05:30:00Z,26.2168,-96.4998,1022.65,11111222 
TABS,ioos:station:wmo:42045:1,2009-11-04T06:00:00Z,26.2168,-96.4998,1022.53,11111222 
TABS,ioos:station:wmo:42045:1,2009-11-04T06:30:00Z,26.2168,-96.4998,1022.39,11111222 
TABS,ioos:station:wmo:42045:1,2009-11-04T07:00:00Z,26.2168,-96.4998,1022.4,11111222 
TABS,ioos:station:wmo:42045:1,2009-11-04T07:30:00Z,26.2168,-96.4998,1022.26,11111222 
TABS,ioos:station:wmo:42045:1,2009-11-04T08:00:00Z,26.2168,-96.4998,1022.07,11111222 
TABS,ioos:station:wmo:42045:1,2009-11-04T08:30:00Z,26.2168,-96.4998,1021.88,11111222 
TABS,ioos:station:wmo:42045:1,2009-11-04T09:00:00Z,26.2168,-96.4998,1021.8,11111222 
TABS,ioos:station:wmo:42045:1,2009-11-04T09:30:00Z,26.2168,-96.4998,1021.91,11111222 
TABS,ioos:station:wmo:42045:1,2009-11-04T10:00:00Z,26.2168,-96.4998,1022.06,11111222 
TABS,ioos:station:wmo:42045:1,2009-11-04T10:30:00Z,26.2168,-96.4998,1022.05,11111222 
TABS,ioos:station:wmo:42045:1,2009-11-04T11:00:00Z,26.2168,-96.4998,1022.3,11111222 
TABS,ioos:station:wmo:42045:1,2009-11-04T11:30:00Z,26.2168,-96.4998,1022.65,11111222 
TABS,ioos:station:wmo:42045:1,2009-11-04T12:00:00Z,26.2168,-96.4998,1022.88,11111222 
TABS,ioos:station:wmo:42045:1,2009-11-04T12:30:00Z,26.2168,-96.4998,1022.99,11111222 
TABS,ioos:station:wmo:42045:1,2009-11-04T13:00:00Z,26.2168,-96.4998,1023.26,11111222 
TABS,ioos:station:wmo:42045:1,2009-11-04T13:30:00Z,26.2168,-96.4998,1023.54,11111222 
TABS,ioos:station:wmo:42045:1,2009-11-04T14:00:00Z,26.2168,-96.4998,1024.02,11111222 
TABS,ioos:station:wmo:42045:1,2009-11-04T14:30:00Z,26.2168,-96.4998,1024.26,11111222 
TABS,ioos:station:wmo:42045:1,2009-11-04T15:00:00Z,26.2168,-96.4998,1024.42,11111222 
TABS,ioos:station:wmo:42045:1,2009-11-04T15:30:00Z,26.2168,-96.4998,1024.61,11111222 
TABS,ioos:station:wmo:42045:1,2009-11-04T16:00:00Z,26.2168,-96.4998,1024.59,11111222 
TABS,ioos:station:wmo:42045:1,2009-11-04T16:30:00Z,26.2168,-96.4998,1024.64,11111222 
TABS,ioos:station:wmo:42045:1,2009-11-04T17:00:00Z,26.2168,-96.4998,1024.35,11111222 
TABS,ioos:station:wmo:42045:1,2009-11-04T17:30:00Z,26.2168,-96.4998,1024.22,11111222 
TABS,ioos:station:wmo:42045:1,2009-11-04T18:00:00Z,26.2168,-96.4998,1023.81,11111222 
TABS,ioos:station:wmo:42045:1,2009-11-04T18:30:00Z,26.2168,-96.4998,1023.49,11111222 
TABS,ioos:station:wmo:42045:1,2009-11-04T19:00:00Z,26.2168,-96.4998,1023.17,11111222 
TABS,ioos:station:wmo:42045:1,2009-11-04T19:30:00Z,26.2168,-96.4998,1023.13,11111222 
TABS,ioos:station:wmo:42045:1,2009-11-04T20:00:00Z,26.2168,-96.4998,1022.8,11111222 
TABS,ioos:station:wmo:42045:1,2009-11-04T20:30:00Z,26.2168,-96.4998,1022.63,11111222 
TABS,ioos:station:wmo:42045:1,2009-11-04T21:00:00Z,26.2168,-96.4998,1022.63,11111222 
TABS,ioos:station:wmo:42045:1,2009-11-04T21:30:00Z,26.2168,-96.4998,1022.75,11111222 
TABS,ioos:station:wmo:42045:1,2009-11-04T22:00:00Z,26.2168,-96.4998,1022.91,11111222 
TABS,ioos:station:wmo:42045:1,2009-11-04T22:30:00Z,26.2168,-96.4998,1023.13,11111222 
TABS,ioos:station:wmo:42045:1,2009-11-04T23:00:00Z,26.2168,-96.4998,1023.2,11111222 
TABS,ioos:station:wmo:42045:1,2009-11-04T23:30:00Z,26.2168,-96.4998,1023.38,11111222 
TABS,ioos:station:wmo:42045:1,2009-11-05T00:00:00Z,26.2168,-96.4998,1023.63,11111222 
TABS,ioos:station:wmo:42045:1,2009-11-05T00:30:00Z,26.2168,-96.4998,1023.78,11111222 
TABS,ioos:station:wmo:42045:1,2009-11-05T01:00:00Z,26.2168,-96.4998,1024.14,11111222 
TABS,ioos:station:wmo:42045:1,2009-11-05T01:30:00Z,26.2168,-96.4998,1024.43,11111222 
TABS,ioos:station:wmo:42045:1,2009-11-05T02:00:00Z,26.2168,-96.4998,1024.68,11111222 
TABS,ioos:station:wmo:42045:1,2009-11-05T02:30:00Z,26.2168,-96.4998,1024.99,11111222 
TABS,ioos:station:wmo:42045:1,2009-11-05T03:00:00Z,26.2168,-96.4998,1025.21,11111222 
TABS,ioos:station:wmo:42045:1,2009-11-05T03:30:00Z,26.2168,-96.4998,1025.25,11111222 
TABS,ioos:station:wmo:42045:1,2009-11-05T04:00:00Z,26.2168,-96.4998,1025.34,11111222 
TABS,ioos:station:wmo:42045:1,2009-11-05T04:30:00Z,26.2168,-96.4998,1025.43,11111222 
TABS,ioos:station:wmo:42045:1,2009-11-05T05:00:00Z,26.2168,-96.4998,1025.41,11111222 
TABS,ioos:station:wmo:42045:1,2009-11-05T05:30:00Z,26.2168,-96.4998,1025.48,11111222 
TABS,ioos:station:wmo:42045:1,2009-11-05T06:00:00Z,26.2168,-96.4998,1025.42,11111222 
TABS,ioos:station:wmo:42045:1,2009-11-05T06:30:00Z,26.2168,-96.4998,1025.28,11111222 
TABS,ioos:station:wmo:42045:1,2009-11-05T07:00:00Z,26.2168,-96.4998,1025.24,11111222 
TABS,ioos:station:wmo:42045:1,2009-11-05T07:30:00Z,26.2168,-96.4998,1025.17,11111222 
TABS,ioos:station:wmo:42045:1,2009-11-05T08:00:00Z,26.2168,-96.4998,1025.06,11111222 
TABS,ioos:station:wmo:42045:1,2009-11-05T08:30:00Z,26.2168,-96.4998,1024.98,11111222 
TABS,ioos:station:wmo:42045:1,2009-11-05T09:00:00Z,26.2168,-96.4998,1024.98,11111222 
TABS,ioos:station:wmo:42045:1,2009-11-05T09:30:00Z,26.2168,-96.4998,1024.96,11111222 
TABS,ioos:station:wmo:42045:1,2009-11-05T10:00:00Z,26.2168,-96.4998,1024.99,11111222 
TABS,ioos:station:wmo:42045:1,2009-11-05T10:30:00Z,26.2168,-96.4998,1024.95,11111222 
TABS,ioos:station:wmo:42045:1,2009-11-05T11:00:00Z,26.2168,-96.4998,1024.95,11111222 
TABS,ioos:station:wmo:42045:1,2009-11-05T11:30:00Z,26.2168,-96.4998,1025.07,11111222 
TABS,ioos:station:wmo:42045:1,2009-11-05T12:00:00Z,26.2168,-96.4998,1025.38,11111222 
TABS,ioos:station:wmo:42045:1,2009-11-05T12:30:00Z,26.2168,-96.4998,1025.39,11111222 
TABS,ioos:station:wmo:42045:1,2009-11-05T13:00:00Z,26.2168,-96.4998,1025.56,11111222 
TABS,ioos:station:wmo:42045:1,2009-11-05T13:30:00Z,26.2168,-96.4998,1025.88,11111222 
TABS,ioos:station:wmo:42045:1,2009-11-05T14:00:00Z,26.2168,-96.4998,1026.13,11111222 
TABS,ioos:station:wmo:42045:1,2009-11-05T14:30:00Z,26.2168,-96.4998,1026.34,11111222 
TABS,ioos:station:wmo:42045:1,2009-11-05T15:00:00Z,26.2168,-96.4998,1026.65,11111222 
TABS,ioos:station:wmo:42045:1,2009-11-05T15:30:00Z,26.2168,-96.4998,1026.77,11111222 
TABS,ioos:station:wmo:42045:1,2009-11-05T16:00:00Z,26.2168,-96.4998,1026.8,11111222 
TABS,ioos:station:wmo:42045:1,2009-11-05T16:30:00Z,26.2168,-96.4998,1026.74,11111222 
TABS,ioos:station:wmo:42045:1,2009-11-05T17:00:00Z,26.2168,-96.4998,1026.5,11111222 
TABS,ioos:station:wmo:42045:1,2009-11-05T17:30:00Z,26.2168,-96.4998,1026.07,11111222 
TABS,ioos:station:wmo:42045:1,2009-11-05T18:00:00Z,26.2168,-96.4998,1025.96,11111222 
TABS,ioos:station:wmo:42045:1,2009-11-05T18:30:00Z,26.2168,-96.4998,1025.36,11111222 
TABS,ioos:station:wmo:42045:1,2009-11-05T19:00:00Z,26.2168,-96.4998,1024.8,11111222 
TABS,ioos:station:wmo:42045:1,2009-11-05T19:30:00Z,26.2168,-96.4998,1024.49,11111222 
TABS,ioos:station:wmo:42045:1,2009-11-05T20:00:00Z,26.2168,-96.4998,1024.35,11111222 
TABS,ioos:station:wmo:42045:1,2009-11-05T20:30:00Z,26.2168,-96.4998,1024.24,11111222 
TABS,ioos:station:wmo:42045:1,2009-11-05T21:00:00Z,26.2168,-96.4998,1024.0,11111222 
TABS,ioos:station:wmo:42045:1,2009-11-05T21:30:00Z,26.2168,-96.4998,1023.59,11111222 
TABS,ioos:station:wmo:42045:1,2009-11-05T22:00:00Z,26.2168,-96.4998,1023.67,11111222 
TABS,ioos:station:wmo:42045:1,2009-11-05T22:30:00Z,26.2168,-96.4998,1023.46,11111222 
TABS,ioos:station:wmo:42045:1,2009-11-05T23:00:00Z,26.2168,-96.4998,1023.62,11111222 
TABS,ioos:station:wmo:42045:1,2009-11-05T23:30:00Z,26.2168,-96.4998,1023.68,11111222 
TABS,ioos:station:wmo:42045:1,2009-11-06T00:00:00Z,26.2168,-96.4998,1023.76,11111222 
TABS,ioos:station:wmo:42045:1,2009-11-06T00:30:00Z,26.2168,-96.4998,1023.74,11111222 
TABS,ioos:station:wmo:42045:1,2009-11-06T01:00:00Z,26.2168,-96.4998,1023.9,11111222 
TABS,ioos:station:wmo:42045:1,2009-11-06T01:30:00Z,26.2168,-96.4998,1023.96,11111222 
TABS,ioos:station:wmo:42045:1,2009-11-06T02:00:00Z,26.2168,-96.4998,1024.2,11111222 
TABS,ioos:station:wmo:42045:1,2009-11-06T02:30:00Z,26.2168,-96.4998,1024.46,11111222 
TABS,ioos:station:wmo:42045:1,2009-11-06T03:00:00Z,26.2168,-96.4998,1024.5,11111222 
TABS,ioos:station:wmo:42045:1,2009-11-06T03:30:00Z,26.2168,-96.4998,1024.48,11111222 
TABS,ioos:station:wmo:42045:1,2009-11-06T04:00:00Z,26.2168,-96.4998,1024.42,11111222 
TABS,ioos:station:wmo:42045:1,2009-11-06T04:30:00Z,26.2168,-96.4998,1024.29,11111222 
TABS,ioos:station:wmo:42045:1,2009-11-06T05:00:00Z,26.2168,-96.4998,1024.07,11111222 
TABS,ioos:station:wmo:42045:1,2009-11-06T05:30:00Z,26.2168,-96.4998,1023.77,11111222 
TABS,ioos:station:wmo:42045:1,2009-11-06T06:00:00Z,26.2168,-96.4998,1023.57,11111222 
TABS,ioos:station:wmo:42045:1,2009-11-06T06:30:00Z,26.2168,-96.4998,1023.15,11111222 
TABS,ioos:station:wmo:42045:1,2009-11-06T07:00:00Z,26.2168,-96.4998,1023.1,11111222 
TABS,ioos:station:wmo:42045:1,2009-11-06T07:30:00Z,26.2168,-96.4998,1022.83,11111222 
TABS,ioos:station:wmo:42045:1,2009-11-06T08:00:00Z,26.2168,-96.4998,1022.53,11111222 
TABS,ioos:station:wmo:42045:1,2009-11-06T08:30:00Z,26.2168,-96.4998,1022.1,11111222 
TABS,ioos:station:wmo:42045:1,2009-11-06T09:00:00Z,26.2168,-96.4998,1022.07,11111222 
TABS,ioos:station:wmo:42045:1,2009-11-06T09:30:00Z,26.2168,-96.4998,1021.73,11111222 
TABS,ioos:station:wmo:42045:1,2009-11-06T10:00:00Z,26.2168,-96.4998,1021.61,11111222 
TABS,ioos:station:wmo:42045:1,2009-11-06T10:30:00Z,26.2168,-96.4998,1021.36,11111222 
TABS,ioos:station:wmo:42045:1,2009-11-06T11:00:00Z,26.2168,-96.4998,1021.38,11111222 
TABS,ioos:station:wmo:42045:1,2009-11-06T11:30:00Z,26.2168,-96.4998,1021.36,11111222 
TABS,ioos:station:wmo:42045:1,2009-11-06T12:00:00Z,26.2168,-96.4998,1021.51,11111222 
TABS,ioos:station:wmo:42045:1,2009-11-06T12:30:00Z,26.2168,-96.4998,1021.61,11111222 
TABS,ioos:station:wmo:42045:1,2009-11-06T13:00:00Z,26.2168,-96.4998,1021.72,11111222 
TABS,ioos:station:wmo:42045:1,2009-11-06T13:30:00Z,26.2168,-96.4998,1022.11,11111222 
TABS,ioos:station:wmo:42045:1,2009-11-06T14:00:00Z,26.2168,-96.4998,1022.13,11111222 
TABS,ioos:station:wmo:42045:1,2009-11-06T14:30:00Z,26.2168,-96.4998,1022.28,11111222 
TABS,ioos:station:wmo:42045:1,2009-11-06T15:00:00Z,26.2168,-96.4998,1022.55,11111222 
TABS,ioos:station:wmo:42045:1,2009-11-06T15:30:00Z,26.2168,-96.4998,1022.59,11111222 
TABS,ioos:station:wmo:42045:1,2009-11-06T16:00:00Z,26.2168,-96.4998,1022.72,11111222 
TABS,ioos:station:wmo:42045:1,2009-11-06T16:30:00Z,26.2168,-96.4998,1022.73,11111222 
TABS,ioos:station:wmo:42045:1,2009-11-06T17:00:00Z,26.2168,-96.4998,1022.59,11111222 
TABS,ioos:station:wmo:42045:1,2009-11-06T17:30:00Z,26.2168,-96.4998,1022.22,11111222 
TABS,ioos:station:wmo:42045:1,2009-11-06T18:00:00Z,26.2168,-96.4998,1021.76,11111222 
TABS,ioos:station:wmo:42045:1,2009-11-06T18:30:00Z,26.2168,-96.4998,1021.1,11111222 